Location: Four Corners
(38.2757°N, 122.4608°W)
Time: 03:53:44
(UTC+00:00)

X-37B - Visible Passes

Search period start: 26 February 2021 00:00
Search period end: 08 March 2021 00:00
Orbit: 383 x 391 km, 45.0° (Epoch: 10 February)

Date Brightness Start Highest point End Pass type
(mag) Time Alt. Az. Time Alt. Az. Time Alt. Az.
26 Feb 2.1 13:21:31 23° NNW 13:22:30 28° NNE 13:25:17 10° ENE visible
27 Feb 3.7 12:25:46 15° NE 12:25:46 15° NE 12:26:36 10° ENE visible
27 Feb 1.0 13:58:04 11° WNW 14:00:59 59° NNE 14:04:06 10° ESE visible
28 Feb 1.6 13:02:23 37° N 13:02:32 37° NNE 13:05:31 10° E visible
01 Mar 4.3 12:06:46 10° ENE 12:06:46 10° ENE 12:06:50 10° ENE visible
01 Mar 0.5 13:39:04 23° WNW 13:40:53 77° SSW 13:44:01 10° ESE visible
02 Mar 2.1 12:43:33 36° E 12:43:33 36° E 12:45:38 10° ESE visible
03 Mar 1.2 13:20:28 37° SW 13:20:43 38° SW 13:23:40 10° SE visible
04 Mar 3.6 12:25:11 13° SE 12:25:11 13° SE 12:25:34 10° ESE visible
04 Mar 3.0 13:58:17 10° SW 13:58:35 10° SW 13:58:52 10° SW visible
05 Mar 3.1 13:02:23 12° S 13:02:23 12° S 13:02:49 10° S visible
